#timestamp,LO_Frequency,Hit,StdDev 
1650510015.6,286047004.0,N
1650510035.5,286047001.4,N
1650510055.3,286047001.7,N
1650510075.2,286047002.1,N
1650510095.9,286047001.9,N
1650510115.7,286047005.6,N
1650510135.6,286047007.0,Y
1650510155.4,286047004.8,P
1650510175.2,286047005.5,P
1650510195.1,286047007.5,P
1650510196.0,286047007.5,Y
1650510215.8,286047001.8,P
1650510235.7,286047000.0,N
1650510255.5,286046998.6,N
1650510275.3,286047000.7,N
1650510295.2,286046999.9,N
1650510315.0,286047000.0,N
1650510315.9,286047000.0,N
1650510335.7,286047002.3,N
1650510355.6,286047002.8,N
1650510375.4,286046998.5,N
1650510395.3,286046998.2,N
1650510415.1,286047000.4,N
1650510416.0,286047000.4,N
1650510435.8,286047002.3,N
1650510455.7,286047005.4,Y
1650510475.5,286047007.1,P
1650510495.4,286047009.2,N
1650510515.2,286047005.3,N
1650510535.0,286047006.9,N
1650510535.9,286047006.9,N
1650510555.8,286047001.3,N
1650510575.6,286047002.5,N
1650510595.4,286047002.7,N
1650510615.3,286047002.2,N
1650510635.1,286047001.4,N
1650510655.8,286047003.9,N
1650510675.7,286047001.6,N
1650510695.5,286047003.1,N
1650510715.4,286047006.0,N
1650510735.2,286047003.5,N
1650510755.0,286047003.1,N
1650510755.9,286047003.1,N
1650510775.8,286047004.8,N
1650510795.6,286047005.1,N
1650510815.4,286047003.3,N
1650510835.3,286047005.1,N
1650510855.1,286047004.5,N
1650510875.9,286047006.5,Y
1650510895.7,286047006.0,P
1650510915.5,286047004.5,P
1650510935.4,286047008.3,P
1650510955.2,286047007.8,Y
1650510975.1,286047003.8,P
1650510976.0,286047003.8,P
1650510995.8,286047003.0,P
1650511015.6,286047002.9,N
1650511035.5,286047004.5,Y
1650511055.3,286047002.3,P
1650511075.1,286047004.4,P
1650511095.9,286047004.2,P
1650511115.7,286047003.7,Y
1650511135.6,286047001.1,P
1650511155.4,286046999.5,N
1650511175.2,286046995.9,N
1650511195.1,286046995.1,N
1650511196.0,286046995.1,N
1650511215.8,286046997.7,N
1650511235.6,286046995.7,N
1650511255.5,286046993.4,N
1650511275.3,286046994.3,N
1650511295.2,286046995.7,N
1650511315.9,286046995.8,N
1650511335.7,286046995.6,N
1650511355.6,286046997.0,N
1650511375.4,286046997.6,N
1650511395.2,286046996.5,N
1650511415.1,286046999.2,N
1650511416.0,286046999.2,N
1650511435.8,286046999.3,N
1650511455.7,286047000.3,N
1650511475.5,286046999.2,N
1650511495.3,286046996.7,N
1650511515.2,286046998.5,N
1650511535.0,286046998.3,N
1650511535.9,286046998.3,N
1650511555.7,286046997.8,N
1650511575.6,286046996.7,N
1650511595.4,286046998.1,N
1650511615.3,286046996.5,N
1650511635.1,286046997.2,N
1650511636.0,286046997.2,N
1650511655.8,286046999.6,N
1650511675.7,286047001.2,N
1650511695.5,286046997.5,N
1650511715.4,286046997.7,N
1650511735.2,286046995.2,N
1650511755.0,286046999.5,N
1650511755.9,286046999.5,N
1650511775.8,286046995.2,N
1650511795.6,286046994.7,Y
1650511815.5,286046994.9,P
1650511835.3,286046995.1,P
1650511855.1,286046998.4,N
1650511875.9,286047000.8,N
1650511895.7,286047000.9,N
1650511915.5,286047000.7,N
1650511935.4,286046998.8,N
1650511955.2,286046998.6,N
1650511975.1,286047000.9,N
1650511976.0,286047000.9,N
1650511995.8,286047002.1,N
1650512015.6,286047003.9,N
1650512035.5,286047003.4,N
1650512055.3,286047003.0,N
1650512075.1,286047002.7,N
1650512095.9,286047002.3,N
1650512115.7,286047000.5,N
1650512135.6,286047001.1,N
1650512155.4,286046996.6,N
1650512175.2,286046997.2,N
1650512195.1,286046995.3,N
1650512196.0,286046995.3,N
1650512215.8,286046997.9,N
1650512235.7,286046996.4,N
1650512255.5,286046993.9,N
1650512275.4,286046993.6,N
1650512295.2,286046992.3,N
1650512315.0,286046991.4,N
1650512315.9,286046991.4,N
1650512335.8,286046991.4,N
1650512355.6,286046991.2,N
1650512375.4,286046993.2,N
1650512395.3,286046994.1,N
1650512415.1,286046991.8,N
1650512435.9,286046994.4,N
1650512455.7,286046992.4,N
1650512475.5,286046996.1,N
1650512495.4,286046995.5,N
1650512515.2,286046998.0,N
1650512535.0,286046996.8,N
1650512535.9,286046996.8,N
1650512555.8,286046997.1,N
1650512575.6,286046998.2,N
1650512595.5,286046998.5,N
1650512615.3,286046998.7,N
1650512635.1,286046998.6,N
1650512655.9,286046999.2,N
1650512675.7,286047000.0,N
1650512695.5,286047001.9,N
1650512715.4,286047000.5,N
1650512735.2,286046999.8,N
1650512755.1,286047000.6,N
1650512756.0,286047000.6,N
1650512775.8,286046998.4,N
1650512795.6,286046999.1,N
1650512815.5,286046996.8,N
1650512835.3,286046999.0,N
1650512855.2,286047000.0,N
1650512875.9,286047002.0,N
1650512895.7,286047003.6,N
1650512915.6,286047005.5,N
1650512935.4,286047005.9,N
1650512955.2,286047005.8,N
1650512975.1,286047003.8,N
1650512976.0,286047003.8,N
1650512995.8,286047003.6,N
1650513015.7,286047005.2,N
1650513035.5,286047002.9,N
1650513055.3,286047001.5,N
1650513075.2,286047001.3,N
1650513095.0,286047003.7,N
1650513095.9,286047003.7,N
1650513115.7,286047002.3,N
1650513135.6,286047004.2,N
1650513155.4,286047009.2,Y
1650513175.3,286047006.6,P
1650513195.1,286047008.6,P
1650513196.0,286047008.6,N
1650513215.8,286047008.8,Y
1650513235.7,286047004.4,P
1650513255.5,286047003.2,P
1650513275.4,286047003.7,N
1650513295.2,286047004.1,Y
1650513315.0,286046995.8,P
1650513315.9,286046995.8,N
1650513335.8,286046995.6,N
1650513355.6,286046996.0,N
1650513375.4,286046997.0,N
1650513395.3,286046995.3,N
1650513415.1,286046996.0,N
1650513435.9,286046993.5,N
1650513455.7,286046995.8,N
1650513475.5,286046994.0,N
1650513495.4,286046990.3,Y
1650513515.2,286046996.3,P
1650513535.1,286046993.8,P
1650513536.0,286046993.8,P
1650513555.8,286046993.6,Y
1650513575.6,286046997.8,P
1650513595.5,286046994.6,P
